Regional Weather Roundup
Issued by NWS

Home | Current Version | Previous Version | Graphics & Text | Print | Product List | Glossary On
Versions: 1 2 3 4 5 6 7 8 9 10 11 12 13 14 15 16 17 18 19 20 21 22 23 24 25 26 27 28 29 30 31 32 33 34 35 36 37 38 39 40 41 42 43 44 45 46 47 48 49 50
000
ASUS45 KABQ 301210
RWRNM
NEW MEXICO REGIONAL WEATHER ROUNDUP
NATIONAL WEATHER SERVICE ALBUQUERQUE NM
600 AM MDT SAT MAY 30 2015

NOTE: "FAIR" MEANS FEW OR NO CLOUDS BELOW 12,000 FEET AGL WITH NO
       SIGNIFICANT WEATHER OR OBSTRUCTIONS TO VISION.

      THIS PRODUCT IS RELEASED AS TWO VERSIONS.  ONE VERSION NEAR
      THE TOP OF THE HOUR CONTAINING PRELIMINARY DATA FROM ALBUQUERQUE
      AND OTHER STATIONS.  A FINAL VERSION WITH ADDITIONAL DATA IS
      ISSUED ABOUT 10 MINUTES AFTER THE HOUR.

NMZ501-503-504-510>518-301300-
NORTHWEST PLATEAU/NORTHCENTRAL MOUNTAINS

CITY           SKY/WX    TMP DP  RH WIND       PRES   REMARKS
FARMINGTON     CLEAR     42  30  62 E6        30.23R
6HR MIN TEMP:  41; 6HR MAX TEMP:  56;

LOS ALAMOS     CLEAR     51  42  72 SW10      30.35S
SANTA FE       CLEAR     50  42  74 S7        30.31R
6HR MIN TEMP:  50; 6HR MAX TEMP:  59;

TAOS           CLEAR     39  28  65 N3        30.35S
ANGEL FIRE     FAIR      35  33  91 CALM      30.42S

$$
NMZ402-403-502-505>509-301300-
WESTCENTRAL MOUNTAINS/SOUTHWEST MOUNTAINS

CITY           SKY/WX    TMP DP  RH WIND       PRES   REMARKS
GALLUP         CLEAR     42  29  59 CALM      30.29R
6HR MIN TEMP:  40; 6HR MAX TEMP:  50;

GRANTS         CLEAR     42  34  73 S7        30.32R
SILVER CITY      N/A     59  25  27 NW7       30.17R

$$
NMZ407-409-411-412-301300-
SOUTHERN DESERTS

CITY           SKY/WX    TMP DP  RH WIND       PRES   REMARKS
LORDSBURG      FAIR      55  21  26 S6        30.09R
DEMING         CLEAR     69  34  27 NE14G22   30.09R
6HR MIN TEMP:  68; 6HR MAX TEMP:  76;

LAS CRUCES     CLEAR     63  37  38 NW8       30.12R
HOLLOMAN AFB   CLEAR     58  41  53 SE7       30.10R
ALAMOGORDO     CLEAR     57  34  41 S8        30.12R
T OR C         CLEAR     63  44  50 NE10G24   30.18R
6HR MIN TEMP:  63; 6HR MAX TEMP:  74;


$$
NMZ519>523-301300-
CENTRAL VALLEYS/CENTRAL HIGHLANDS

CITY           SKY/WX    TMP DP  RH WIND       PRES   REMARKS
ALBUQUERQUE    PTCLDY    59  45  59 E17G25    30.26R
6HR MIN TEMP:  59; 6HR MAX TEMP:  64;

DOUBLE EAGLE   CLEAR     55  45  67 SE16      30.29R
MORIARTY ARPT  FAIR      46  41  83 W6        30.34S
6HR MIN TEMP:  46; 6HR MAX TEMP:  56;

CLINES CORNERS PTCLDY    47  42  83 E10       30.34S
6HR MIN TEMP:  47; 6HR MAX TEMP:  52;

BELEN          FAIR      54  44  70 W7        30.25S
6HR MIN TEMP:  54; 6HR MAX TEMP:  62;

SOCORRO        FAIR      59  45  59 N8        30.24R
6HR MIN TEMP:  59; 6HR MAX TEMP:  70;


$$
NMZ524>526-539-540-301300-
SOUTHCENTRAL MOUNTAINS

CITY           SKY/WX    TMP DP  RH WIND       PRES   REMARKS
RUIDOSO        CLEAR     48  43  81 S9        30.36R

$$
NMZ527>531-301300-
NORTHEAST HIGHLANDS/NORTHEAST PLAINS

CITY           SKY/WX    TMP DP  RH WIND       PRES   REMARKS
LAS VEGAS      CLOUDY    44  42  93 E7        30.36S
6HR MIN TEMP:  43; 6HR MAX TEMP:  50;

RATON          CLEAR     44  41  89 NW6       30.33S
6HR MIN TEMP:  44; 6HR MAX TEMP:  52;

CLAYTON        MOCLDY    51  48  89 NE10      30.30R
6HR MIN TEMP:  50; 6HR MAX TEMP:  54;


$$
NMZ532>537-301300-
EASTCENTRAL PLAINS

CITY           SKY/WX    TMP DP  RH WIND       PRES   REMARKS
TUCUMCARI      CLOUDY    55  52  89 NE3       30.28R
6HR MIN TEMP:  53; 6HR MAX TEMP:  61; 6HR PCP:  0.02;

CANNON AFB     CLOUDY    54  51  89 NE14G21   30.26R
6HR MIN TEMP:  54; 6HR MAX TEMP:  58;

CLOVIS AIRPORT CLOUDY    54  50  87 N13G18    30.27R

$$
NMZ028-029-538-301300-
SOUTHEAST PLAINS

CITY           SKY/WX    TMP DP  RH WIND       PRES   REMARKS
ROSWELL        CLOUDY    60  53  77 N13       30.20R
6HR MIN TEMP:  53; 6HR MAX TEMP:  69; 6HR PCP:  1.28;

ARTESIA        CLOUDY    59  59 100 N9        30.22R
CARLSBAD       CLOUDY    61  55  81 W7        30.18R
6HR MIN TEMP:  58; 6HR MAX TEMP:  72; 6HR PCP:  0.08;

HOBBS          TSTM      59  57  94 E20       30.16F


$$


USA.gov is the U.S. government's official web portal to all federal, state and local government web resources and services.